Date String (YYYY-MM-DD hh:mm:ss) UTC,Instrument flags,absolute air pressure of the measurement (hPa),sample flow rate (lpm),inlet stack bypass flow (lpm),air temperature of the measurement (°C),ambient temperature measured by the external sensor (°C),aerosol sample conditioner tube jacket temperature (°C),OPC LED temperature (°C),internal box temperature (°C),relative humidity of the measurement (%),span deviation,mass concentration of particles derived from Lorenz-Mie calculation of OPC scattering (μg/m³),mass concentration of particles derived from Lorenz-Mie calculation of OPC scattering (μg/m³),mass concentration of particles derived from Lorenz-Mie calculation of OPC scattering (μg/m³)
DateTimeUTC,F1_M11,P_M11,Q1_M11,Q2_M11,T1_M11,T2_M11,T3_M11,T4_M11,T5_M11,U1_M11,ZSPAN_M11,X0_M11,X2_M11,X1_M11
2024-06-09 05:00:00,SystemResetWarning,0832.2,5.00,000.00,030.3,029.6,000.0,038.6,032.0,032.8,0000.0,0014.37,0005.38,0004.27
2024-06-09 05:01:00,SystemResetWarning,0832.2,5.01,000.00,030.3,029.6,000.0,038.6,032.0,032.8,0000.0,0014.08,0005.39,0004.27
2024-06-09 05:02:00,SystemResetWarning,0832.2,5.01,000.00,030.3,029.7,000.0,038.7,032.1,032.7,0000.0,0013.41,0005.47,0004.28
2024-06-09 05:03:00,SystemResetWarning,0832.1,5.00,000.00,030.4,029.7,000.0,038.7,032.1,032.6,0000.0,0013.76,0005.45,0004.26
2024-06-09 05:04:00,SystemResetWarning,0832.1,5.00,000.00,030.4,029.7,000.0,038.7,032.1,032.6,0000.0,0014.51,0005.47,0004.27
2024-06-09 05:05:00,SystemResetWarning,0832.0,4.99,000.00,030.4,029.7,000.0,038.7,032.1,032.4,0000.0,0014.72,0005.46,0004.26
2024-06-09 05:06:00,SystemResetWarning,0832.0,5.00,000.00,030.4,029.7,000.0,038.7,032.1,032.2,0000.0,0014.52,0005.46,0004.26
2024-06-09 05:07:00,SystemResetWarning,0832.0,5.00,000.00,030.4,029.8,000.0,038.7,032.1,032.0,0000.0,0015.17,0005.46,0004.25
2024-06-09 05:08:00,SystemResetWarning,0831.9,4.99,000.00,030.4,029.8,000.0,038.7,032.1,032.0,0000.0,0015.36,0005.44,0004.23
2024-06-09 05:09:00,SystemResetWarning,0831.9,4.99,000.00,030.4,029.8,000.0,038.8,032.1,032.0,0000.0,0015.13,0005.40,0004.22
2024-06-09 05:10:00,SystemResetWarning,0831.9,5.00,000.00,030.4,029.8,000.0,038.8,032.2,031.9,0000.0,0016.04,0005.38,0004.23
2024-06-09 05:11:00,SystemResetWarning,0831.9,5.01,000.00,030.5,029.8,000.0,038.8,032.2,031.9,0000.0,0016.58,0005.41,0004.25
2024-06-09 05:12:00,SystemResetWarning,0831.9,5.01,000.00,030.5,029.8,000.0,038.8,032.2,031.8,0000.0,0016.12,0005.41,0004.27
2024-06-09 05:13:00,SystemResetWarning,0831.9,5.00,000.00,030.5,029.8,000.0,038.8,032.2,031.7,0000.0,0016.44,0005.34,0004.27
2024-06-09 05:14:00,SystemResetWarning,0831.9,5.00,000.00,030.5,029.9,000.0,038.8,032.2,031.5,0000.0,0017.09,0005.34,0004.27
2024-06-09 05:15:00,SystemResetWarning,0831.9,4.99,000.00,030.5,029.9,000.0,038.8,032.2,031.3,0000.0,0017.19,0005.36,0004.25
2024-06-09 05:16:00,SystemResetWarning,0831.9,4.99,000.00,030.5,029.9,000.0,038.8,032.3,031.2,0000.0,0016.70,0005.35,0004.23
2024-06-09 05:17:00,SystemResetWarning,0831.8,4.99,000.00,030.6,029.9,000.0,038.9,032.3,031.0,0000.0,0016.78,0005.33,0004.21
2024-06-09 05:18:00,SystemResetWarning,0831.8,4.99,000.00,030.6,029.9,000.0,038.9,032.3,030.9,0000.0,0016.95,0005.31,0004.18
2024-06-09 05:19:00,SystemResetWarning,0831.8,5.01,000.00,030.6,029.9,000.0,038.9,032.3,030.9,0000.0,0016.46,0005.29,0004.15
2024-06-09 05:20:00,SystemResetWarning,0831.8,5.01,000.00,030.6,030.0,000.0,038.9,032.3,030.9,0000.0,0017.29,0005.30,0004.14
2024-06-09 05:21:00,SystemResetWarning,0831.9,4.99,000.00,030.6,030.0,000.0,038.9,032.3,030.9,0000.0,0017.53,0005.29,0004.11
2024-06-09 05:22:00,SystemResetWarning,0831.9,4.99,000.00,030.6,030.0,000.0,038.9,032.3,030.9,0000.0,0017.22,0005.22,0004.09
2024-06-09 05:23:00,SystemResetWarning,0831.8,5.00,000.00,030.6,030.0,000.0,039.0,032.3,030.8,0000.0,0017.67,0005.21,0004.06
2024-06-09 05:24:00,SystemResetWarning,0831.8,5.01,000.00,030.6,030.0,000.0,039.0,032.3,030.8,0000.0,0017.78,0005.20,0004.03
2024-06-09 05:25:00,SystemResetWarning,0832.0,5.00,000.00,030.7,030.0,000.0,039.0,032.3,030.8,0000.0,0016.82,0005.17,0004.01
2024-06-09 05:26:00,SystemResetWarning,0832.1,4.99,000.00,030.7,030.0,000.0,039.0,032.4,030.7,0000.0,0016.03,0005.16,0004.00
2024-06-09 05:27:00,SystemResetWarning,0831.7,4.99,000.00,030.7,030.0,000.0,039.0,032.4,030.7,0000.0,0016.03,0005.13,0003.99
2024-06-09 05:28:00,SystemResetWarning,0831.6,5.01,000.00,030.7,030.0,000.0,039.0,032.4,030.7,0000.0,0017.11,0005.10,0003.98
2024-06-09 05:29:00,SystemResetWarning,0831.6,5.00,000.00,030.7,030.0,000.0,039.0,032.4,030.8,0000.0,0018.21,0005.11,0003.99
2024-06-09 05:30:00,SystemResetWarning,0831.6,4.99,000.00,030.7,030.0,000.0,039.1,032.4,030.7,0000.0,0018.04,0005.16,0004.00
2024-06-09 05:31:00,SystemResetWarning,0831.7,4.99,000.00,030.7,030.0,000.0,039.1,032.4,030.6,0000.0,0017.54,0005.20,0004.00
2024-06-09 05:32:00,SystemResetWarning,0831.6,5.01,000.00,030.7,030.0,000.0,039.1,032.4,030.5,0000.0,0016.63,0005.17,0003.98
2024-06-09 05:33:00,SystemResetWarning,0831.5,5.01,000.00,030.7,030.0,000.0,039.1,032.4,030.5,0000.0,0015.93,0005.18,0003.96
2024-06-09 05:34:00,SystemResetWarning,0831.5,5.01,000.00,030.7,030.0,000.0,039.1,032.4,030.3,0000.0,0015.48,0005.18,0003.94
2024-06-09 05:35:00,SystemResetWarning,0831.6,4.99,000.00,030.7,030.0,000.0,039.1,032.4,030.3,0000.0,0014.83,0005.15,0003.91
2024-06-09 05:36:00,SystemResetWarning,0831.5,4.99,000.00,030.7,030.0,000.0,039.1,032.4,030.1,0000.0,0014.65,0005.12,0003.88
2024-06-09 05:37:00,SystemResetWarning,0831.5,5.01,000.00,030.7,030.0,000.0,039.1,032.4,029.8,0000.0,0015.28,0005.01,0003.83
2024-06-09 05:38:00,SystemResetWarning,0831.5,5.01,000.00,030.7,030.0,000.0,039.1,032.4,029.5,0000.0,0014.80,0004.94,0003.79
2024-06-09 05:39:00,SystemResetWarning,0831.5,4.99,000.00,030.7,030.0,000.0,039.1,032.4,028.8,0000.0,0013.32,0004.91,0003.74
2024-06-09 05:40:00,SystemResetWarning,0831.5,4.99,000.00,030.7,030.0,000.0,039.1,032.4,028.6,0000.0,0011.72,0004.79,0003.67
2024-06-09 05:41:00,SystemResetWarning,0831.5,5.02,000.00,030.7,030.0,000.0,039.1,032.4,028.6,0000.0,0011.73,0004.63,0003.58
2024-06-09 05:42:00,SystemResetWarning,0831.6,4.99,000.00,030.7,030.0,000.0,039.1,032.4,028.5,0000.0,0011.65,0004.50,0003.52
2024-06-09 05:43:00,SystemResetWarning,0831.6,5.00,000.00,030.8,030.1,000.0,039.1,032.4,028.5,0000.0,0011.58,0004.43,0003.45
2024-06-09 05:44:00,SystemResetWarning,0831.6,5.02,000.00,030.8,030.1,000.0,039.1,032.4,028.2,0000.0,0011.10,0004.33,0003.38
2024-06-09 05:45:00,SystemResetWarning,0831.5,5.00,000.00,030.8,030.1,000.0,039.1,032.5,028.1,0000.0,0010.69,0004.20,0003.29
2024-06-09 05:46:00,SystemResetWarning,0831.5,4.99,000.00,030.8,030.1,000.0,039.1,032.5,027.9,0000.0,0010.65,0004.08,0003.23
2024-06-09 05:47:00,SystemResetWarning,0831.6,4.99,000.00,030.8,030.1,000.0,039.1,032.5,027.6,0000.0,0010.80,0004.02,0003.16
2024-06-09 05:48:00,SystemResetWarning,0831.5,5.01,000.00,030.8,030.1,000.0,039.2,032.5,027.3,0000.0,0010.33,0003.96,0003.09
2024-06-09 05:49:00,SystemResetWarning,0831.6,5.01,000.00,030.8,030.1,000.0,039.2,032.5,027.2,0000.0,0010.11,0003.92,0003.00
2024-06-09 05:50:00,SystemResetWarning,0831.5,4.99,000.00,030.8,030.1,000.0,039.2,032.5,027.1,0000.0,0009.96,0003.81,0002.88
2024-06-09 05:51:00,SystemResetWarning,0831.5,4.99,000.00,030.8,030.1,000.0,039.2,032.5,027.7,0000.0,0009.84,0003.76,0002.84
2024-06-09 05:52:00,SystemResetWarning,0831.5,4.99,000.00,030.8,030.1,000.0,039.2,032.5,027.9,0000.0,0009.28,0003.77,0002.83
2024-06-09 05:53:00,SystemResetWarning,0831.5,5.01,000.00,030.8,030.2,000.0,039.2,032.5,028.1,0000.0,0009.29,0003.80,0002.82
2024-06-09 05:54:00,SystemResetWarning,0831.4,5.00,000.00,030.8,030.2,000.0,039.2,032.5,028.0,0000.0,0009.12,0003.77,0002.81
2024-06-09 05:55:00,SystemResetWarning,0831.4,4.99,000.00,030.8,030.2,000.0,039.2,032.5,027.9,0000.0,0008.75,0003.71,0002.82
2024-06-09 05:56:00,SystemResetWarning,0831.4,4.99,000.00,030.8,030.2,000.0,039.2,032.5,027.8,0000.0,0008.77,0003.71,0002.82
2024-06-09 05:57:00,SystemResetWarning,0831.4,5.01,000.00,030.8,030.2,000.0,039.2,032.5,027.6,0000.0,0008.62,0003.69,0002.82
2024-06-09 05:58:00,SystemResetWarning,0831.4,5.01,000.00,030.8,030.2,000.0,039.2,032.5,027.8,0000.0,0008.23,0003.61,0002.80
2024-06-09 05:59:00,SystemResetWarning,0831.3,4.99,000.00,030.8,030.1,000.0,039.2,032.5,028.2,0000.0,0008.35,0003.63,0002.84
